Theta_e
328 329 331 330 328 329 328 328 329 329 330 330 330 330 330 331 331 331 332 332 333 332 331 330 329 329 330 331 329 328 328 328 326 324 323 324 321 321 322 319 321 322 322 318 320 318 317 314 317 323 325 324 324 324 324 323 323 322 323 323 324 324 323
329 329 329 329 328 328 326 325 328 328 329 330 331 330 330 331 333 332 332 332 332 331 331 330 328 328 329 329 328 327 327 327 326 326 325 324 323 321 319 317 320 320 318 319 320 317 317 316 316 318 319 323 323 321 321 321 322 322 323 324 325 325 322
327 327 328 327 327 326 326 325 326 326 328 328 330 331 330 332 333 332 332 332 331 331 331 330 330 328 328 328 328 327 327 327 325 326 326 325 324 322 321 320 319 317 317 316 315 316 318 318 316 317 318 318 316 316 319 319 321 322 323 324 324 322 319
325 326 326 325 324 323 324 324 324 326 328 327 328 329 330 332 332 332 332 331 330 332 330 330 329 329 329 329 329 328 327 327 325 325 324 324 323 322 321 322 321 321 318 316 316 317 316 315 317 316 315 316 315 314 316 321 323 323 324 323 320 318 317
326 326 325 325 324 324 323 323 323 324 325 326 326 327 328 330 331 330 331 330 330 329 328 329 329 330 330 330 329 328 327 326 326 326 324 323 323 323 322 321 321 320 318 319 319 318 317 317 317 315 314 315 316 315 319 317 322 322 323 321 318 317 315
326 326 326 325 324 324 323 322 323 323 324 324 325 326 326 328 328 327 327 327 328 328 328 328 329 330 330 330 329 327 327 326 326 325 324 323 324 323 322 321 321 321 320 320 321 319 319 319 317 315 313 315 311 313 316 318 317 321 320 316 317 316 314
326 326 326 325 324 324 324 324 324 324 323 324 324 325 325 327 326 326 326 327 328 328 328 328 329 330 330 330 328 327 327 326 326 324 324 324 323 323 323 321 321 321 319 322 321 320 319 318 316 315 314 311 312 314 315 316 317 314 312 314 315 314 313
326 326 325 326 325 324 324 325 325 324 323 323 325 325 325 326 326 326 325 326 327 327 327 327 329 329 329 330 329 327 327 326 326 325 323 323 324 323 321 322 322 320 321 322 322 321 321 320 318 316 315 311 309 310 311 313 315 311 307 307 312 312 312
326 325 324 324 323 324 324 325 325 324 324 323 325 325 324 326 326 325 326 326 327 326 326 327 327 327 327 328 326 326 326 329 326 325 324 324 324 322 322 320 322 322 322 323 323 322 322 321 319 317 316 315 312 308 308 308 310 306 308 303 306 309 310
325 325 324 323 324 323 324 324 325 326 325 325 326 325 325 325 326 326 326 326 326 326 325 325 326 325 326 327 326 325 326 326 327 326 324 325 324 323 321 322 322 321 322 323 323 322 322 320 319 318 317 316 315 312 308 305 306 302 304 303 301 305 309
325 325 324 324 324 323 323 323 324 325 325 326 327 327 325 324 326 329 325 324 324 324 324 324 325 325 325 324 325 324 325 326 325 323 324 325 324 323 322 321 320 321 321 323 323 323 322 320 318 317 316 314 312 313 310 308 305 303 303 303 301 301 305
325 325 324 324 324 324 324 324 324 325 326 326 326 325 324 325 325 325 325 324 323 323 323 322 324 324 324 322 322 322 322 325 324 323 322 324 323 324 322 321 319 321 320 322 322 323 322 320 318 317 315 315 312 309 310 308 302 302 304 302 302 304 305
326 326 324 324 324 324 325 324 324 325 325 326 325 325 324 324 324 324 324 324 322 321 322 321 323 323 322 322 322 323 322 323 324 323 322 322 327 324 322 321 319 321 320 320 321 321 320 320 319 317 316 315 312 310 308 306 306 304 304 303 302 303 305
326 325 324 325 325 324 324 325 325 326 326 325 325 324 324 322 322 323 324 323 322 321 321 320 321 322 320 320 321 322 322 323 324 322 323 322 324 323 323 322 321 321 320 320 318 319 320 320 318 318 317 315 313 310 308 306 304 302 303 303 303 302 303
327 325 324 323 325 324 324 325 326 326 325 325 325 324 322 321 321 322 321 320 321 321 321 320 320 320 320 319 319 321 321 321 322 322 323 323 322 325 322 321 322 321 320 320 316 319 318 318 318 316 315 316 314 310 309 307 303 303 302 302 301 301 301
326 325 323 323 323 324 324 326 326 325 325 325 324 323 322 320 320 320 319 319 320 319 320 320 318 318 318 319 318 318 320 320 320 320 321 322 323 322 321 321 321 319 322 320 317 314 314 315 315 316 312 313 314 310 309 308 306 303 302 300 301 301 300
326 324 324 323 323 324 325 325 326 325 325 324 323 322 321 320 319 318 318 317 319 318 318 318 317 317 317 316 317 317 318 319 320 320 320 321 322 322 322 320 320 320 319 320 315 314 312 313 311 310 310 310 311 309 308 307 308 304 301 302 300 301 301
324 324 323 323 323 324 324 325 325 325 324 323 323 322 321 320 318 317 317 317 318 318 317 317 316 313 314 314 316 317 318 319 319 319 320 321 324 322 321 321 319 318 315 315 313 312 312 311 310 310 309 310 310 309 309 307 306 306 304 302 302 301 301
323 324 323 323 324 324 324 324 324 324 324 323 323 322 321 319 318 316 316 317 318 317 315 315 315 314 313 313 314 315 317 317 318 318 319 320 321 321 321 319 317 315 315 313 312 312 311 311 311 310 309 310 311 310 308 306 306 305 305 304 302 301 300
323 323 322 323 324 324 324 324 324 323 323 323 322 321 320 319 317 316 316 316 315 313 312 311 311 312 313 311 311 313 314 315 316 317 318 319 320 320 320 319 316 315 314 314 313 312 312 312 313 310 309 309 310 309 308 306 305 304 304 303 301 302 302
321 321 321 322 323 323 324 323 323 321 322 322 321 321 318 315 314 314 313 311 310 310 309 308 307 309 312 310 311 313 314 316 316 316 316 316 317 318 318 317 315 315 315 314 314 312 313 312 312 312 309 311 310 310 309 307 305 304 303 303 302 302 300
321 319 320 321 321 321 321 321 322 321 321 320 319 316 314 314 312 310 310 309 308 308 307 305 304 304 309 313 312 313 313 315 316 315 314 314 315 315 314 313 313 314 318 318 313 313 314 314 313 312 309 312 311 311 310 309 308 307 305 304 305 304 303
321 320 320 320 320 321 321 321 320 318 318 317 316 315 314 313 311 310 308 307 307 306 304 303 301 299 299 308 312 314 313 315 316 315 314 313 313 313 313 313 316 316 312 312 308 303 302 305 310 312 310 311 310 310 309 309 308 307 307 306 305 304 304
321 320 320 320 320 320 320 319 318 317 316 316 314 313 312 310 309 308 307 305 303 302 301 299 296 293 298 306 312 312 312 313 314 315 314 313 311 311 311 312 312 314 311 308 304 300 299 299 299 300 302 307 311 311 309 308 307 306 305 305 304 303 302
320 319 319 319 319 319 318 317 315 315 314 313 312 311 310 308 307 306 304 302 301 301 299 296 294 297 300 303 308 314 314 313 313 313 313 312 312 314 316 316 315 315 316 313 307 304 302 298 297 297 297 297 297 299 303 307 306 306 304 304 304 305 304
318 318 317 316 317 318 318 316 314 313 312 311 310 308 306 305 303 303 302 301 299 299 298 294 294 297 300 302 303 310 314 314 314 314 314 315 315 315 314 313 311 311 312 314 314 311 307 307 301 299 301 303 301 297 294 296 299 306 306 304 305 304 304
316 316 316 316 316 316 314 312 311 310 309 307 305 303 302 301 300 299 299 299 297 297 296 295 294 297 300 302 303 308 315 315 315 315 315 315 315 314 313 312 310 308 307 308 307 308 313 311 309 310 309 309 310 308 303 300 297 296 301 306 306 306 305
313 313 314 313 312 311 310 308 307 306 305 304 303 301 300 299 298 298 297 297 297 296 295 293 294 296 300 302 303 307 315 316 315 315 314 315 315 315 314 312 309 307 307 307 305 305 311 312 311 311 310 310 309 308 310 310 309 309 309 308 306 306 307
309 310 311 310 309 308 307 306 304 304 302 301 300 299 298 298 297 297 297 297 297 295 294 292 293 296 300 302 305 314 315 314 313 312 312 313 315 316 314 310 308 306 304 303 300 299 306 312 311 309 309 308 309 307 307 306 298 299 303 305 305 305 306
306 307 308 308 307 306 305 304 304 303 301 300 299 298 298 297 297 296 296 295 295 294 294 293 293 295 298 302 306 314 314 313 311 309 309 309 311 311 310 308 306 304 302 301 296 295 298 303 307 306 307 306 305 306 306 307 302 299 297 297 296 296 296
303 304 305 305 305 305 305 305 305 304 302 301 300 300 299 298 298 297 295 294 294 294 294 294 293 294 295 297 304 312 312 311 309 307 306 305 304 304 305 307 305 301 299 299 293 294 297 302 304 304 304 303 301 301 302 303 304 303 300 299 299 299 299
303 303 302 303 304 303 304 304 304 304 304 303 302 301 300 298 296 296 295 295 298 294 293 294 293 292 294 295 302 306 308 308 307 306 304 301 299 298 296 297 299 298 298 294 291 292 294 301 303 302 301 301 299 298 300 300 300 300 301 301 301 303 302
302 302 302 302 303 303 303 303 303 303 302 301 300 299 298 297 295 294 295 294 295 294 294 293 293 292 293 293 296 303 304 305 305 305 304 302 298 297 296 295 295 290 290 290 290 290 291 294 300 301 300 299 297 298 300 300 300 299 299 298 300 300 301
301 302 302 302 303 303 303 302 302 302 301 301 300 298 297 297 296 296 296 296 296 296 296 295 293 291 292 292 293 296 299 300 301 302 302 300 299 297 296 295 296 292 291 291 290 290 290 289 292 299 299 298 299 298 296 299 299 298 298 298 299 299 300
303 302 302 302 302 302 303 303 302 302 302 300 299 298 297 296 296 295 296 296 296 296 297 297 295 292 292 292 291 293 296 295 297 298 297 296 296 296 296 296 295 293 290 291 291 291 291 289 289 295 295 293 290 290 295 297 296 296 296 297 297 298 299
300 302 301 301 301 301 302 302 302 302 301 300 299 298 297 297 296 296 296 296 296 296 295 295 293 293 291 291 291 291 291 294 293 297 296 295 295 295 295 294 295 293 290 290 291 291 291 289 291 291 290 289 288 287 291 294 292 294 294 295 295 296 296
298 298 299 299 299 299 300 300 301 302 302 301 300 299 298 297 297 296 296 295 296 296 295 294 293 292 292 290 291 291 290 291 292 294 294 293 292 292 291 291 292 290 290 291 291 291 291 291 289 290 289 289 289 289 291 291 291 292 290 291 294 295 295
Wind_Speed
9 9 8 6 5 5 5 5 4 4 4 3 4 4 3 3 4 4 4 3 4 5 5 6 6 4 4 4 7 7 7 7 8 8 7 8 8 4 0 1 3 5 8 3 4 6 7 6 4 2 2 2 2 2 3 2 2 3 3 3 3 3 4
6 6 6 5 6 5 5 4 4 5 4 4 4 4 4 4 4 4 4 4 4 5 5 5 4 4 4 5 6 6 7 6 6 6 7 9 6 5 3 3 6 6 3 3 5 3 6 6 4 4 4 2 1 2 2 2 2 2 3 4 4 3 4
4 4 4 6 5 5 6 5 5 5 5 5 4 4 5 6 5 4 5 5 5 5 4 4 4 4 4 5 6 6 6 6 4 6 7 7 5 4 4 6 6 4 4 3 2 4 4 2 6 7 6 6 5 2 2 3 3 2 3 4 4 4 4
4 6 5 4 4 3 5 5 4 5 4 5 5 5 7 6 5 6 6 5 5 4 4 4 6 6 6 6 5 5 5 6 5 5 4 4 5 5 4 7 8 9 8 7 8 6 5 5 6 5 4 4 4 4 3 4 4 3 3 3 4 4 3
5 6 7 7 6 6 4 5 4 3 3 4 5 6 6 6 6 6 5 4 5 5 5 5 4 6 6 5 5 5 5 4 4 5 5 6 5 5 5 5 6 4 4 6 7 7 7 7 9 8 6 3 3 1 2 2 1 2 3 3 3 3 3
4 5 6 6 5 6 5 4 4 5 4 4 6 7 6 6 6 5 5 6 5 5 5 4 4 5 6 6 6 5 5 6 6 6 6 6 7 6 6 4 5 4 4 5 6 6 4 6 8 8 2 3 4 3 2 3 2 2 2 3 3 3 3
5 5 5 6 6 5 5 5 5 5 6 6 6 6 6 5 5 5 5 6 6 6 5 5 5 5 5 6 6 6 5 5 5 5 6 5 5 5 5 5 4 5 3 6 6 6 7 7 7 9 8 2 2 4 2 2 2 4 1 2 2 3 3
5 5 5 6 6 6 5 6 5 5 6 5 6 4 4 5 5 5 5 6 6 6 5 5 5 5 5 5 5 5 5 4 5 6 5 5 5 4 4 5 5 3 5 6 7 7 7 8 8 8 9 9 3 2 3 1 3 1 3 1 2 2 2
5 5 5 4 4 4 5 6 6 5 5 6 4 5 4 6 6 5 5 5 5 5 5 6 5 5 5 6 4 4 5 3 5 5 5 5 5 4 4 3 3 4 5 6 6 7 7 7 7 7 7 9 11 7 3 3 3 1 4 3 0 2 3
5 6 6 6 6 4 4 5 6 6 5 6 6 5 5 5 6 5 5 5 5 5 5 5 5 5 5 6 5 4 5 4 5 5 4 5 4 4 3 4 4 4 4 4 5 6 7 6 6 7 7 9 9 10 7 5 5 3 4 2 3 2 3
6 6 5 6 5 5 3 2 3 5 5 5 6 5 5 5 5 5 6 5 5 5 5 4 5 5 5 6 5 5 5 5 4 3 3 4 5 3 3 3 3 4 3 5 6 6 7 7 6 7 6 2 2 8 8 8 6 3 4 3 2 3 4
6 6 5 5 5 6 8 6 7 7 5 5 6 5 5 6 6 5 6 5 5 5 5 5 5 5 5 5 5 5 3 4 5 4 3 4 3 4 4 4 3 4 3 4 5 6 6 6 6 6 5 4 3 1 5 7 5 4 4 7 3 3 4
6 6 5 5 6 7 8 9 6 6 7 6 6 6 6 6 6 6 5 6 4 5 5 5 6 6 5 5 5 5 3 4 5 4 3 3 4 4 4 4 3 4 4 3 4 6 6 6 6 6 6 6 4 4 5 5 8 8 4 5 3 4 5
7 5 5 6 6 7 7 8 8 7 7 7 7 7 7 6 6 6 6 5 5 5 5 5 5 6 5 5 5 5 4 5 5 4 4 4 3 4 5 4 4 4 3 4 4 5 6 6 6 7 6 6 6 5 7 5 5 3 1 1 3 3 4
7 5 5 6 6 7 8 9 8 8 9 7 6 8 8 7 6 7 6 6 6 5 5 5 5 5 6 6 5 4 5 5 5 5 4 5 4 4 4 4 4 3 2 4 3 3 5 7 8 6 6 6 6 6 5 6 4 6 6 0 3 3 3
6 5 5 5 6 7 8 9 9 10 8 7 5 7 7 7 7 6 6 5 5 5 5 5 4 5 5 5 5 4 5 5 6 6 5 5 5 4 4 4 5 3 2 3 3 2 3 5 5 6 5 6 7 7 7 6 7 4 6 3 4 5 6
5 5 6 6 8 7 9 9 9 10 8 7 7 7 7 6 6 6 6 4 5 5 5 4 4 4 5 5 6 6 5 5 6 6 6 6 5 5 5 4 4 4 4 6 4 1 1 1 2 4 4 4 5 8 7 6 9 7 4 7 4 8 7
6 6 6 7 8 8 9 10 9 10 9 8 7 7 7 6 5 6 5 5 4 5 4 5 4 4 4 5 7 7 7 6 6 6 5 6 6 5 5 5 4 4 4 5 1 1 2 2 4 5 4 4 6 6 5 6 6 6 8 8 6 4 4
8 7 6 7 9 9 10 10 10 9 10 9 8 8 7 6 7 6 6 4 4 4 3 4 6 5 5 5 5 5 6 6 6 6 5 5 5 5 5 4 4 3 4 4 3 3 1 4 4 4 4 4 4 5 5 4 6 7 8 8 8 5 3
8 7 7 8 8 9 10 11 11 10 8 9 9 7 6 7 5 5 4 5 4 4 3 4 3 3 5 5 6 6 6 5 5 5 5 5 4 5 5 5 4 3 5 5 6 5 4 4 5 4 4 4 3 5 5 5 5 6 5 6 4 6 7
4 3 3 2 4 4 8 11 10 9 8 9 9 7 6 7 5 6 6 6 5 4 4 4 3 2 3 4 5 4 5 6 6 4 4 4 3 3 4 2 5 4 6 5 6 4 5 6 5 5 3 4 4 6 5 4 3 5 5 5 6 6 5
6 2 3 2 2 6 3 2 9 8 8 7 6 7 8 9 9 8 7 6 6 4 5 4 2 1 2 3 3 5 5 6 6 6 4 4 5 7 3 5 5 5 5 6 7 5 5 5 7 7 3 5 5 6 5 5 4 4 3 4 4 2 4
8 7 6 4 3 4 5 5 7 8 7 8 8 9 9 8 9 9 8 6 6 5 4 2 3 5 4 1 4 5 5 6 6 6 6 5 5 6 5 6 6 10 10 9 9 11 11 11 9 7 5 6 7 6 5 5 5 4 5 4 3 4 5
8 7 6 6 4 4 6 5 5 9 9 9 9 9 10 10 8 7 8 7 7 5 3 2 5 4 2 4 5 5 5 5 5 7 6 6 7 7 6 6 6 8 8 8 7 10 12 12 12 12 10 7 6 7 7 6 2 2 2 3 1 3 1
9 8 7 6 5 4 7 2 2 10 10 10 8 9 11 10 9 7 7 7 8 6 5 5 5 2 6 9 9 7 6 6 5 5 6 7 7 7 7 7 6 6 6 5 4 4 7 9 10 11 11 11 10 9 5 4 3 2 2 3 2 1 1
9 8 6 6 4 7 9 3 5 11 11 10 8 11 10 10 8 6 7 8 7 5 5 7 5 7 10 12 14 11 6 7 7 6 7 7 8 7 6 7 7 6 5 10 6 4 4 5 8 11 11 11 11 10 11 11 8 3 3 3 0 0 2
8 8 7 8 6 8 9 2 4 9 10 10 10 10 9 10 8 7 6 8 7 6 5 8 7 9 12 13 14 12 7 8 7 7 7 7 7 7 7 7 7 6 4 5 6 6 5 5 5 6 7 6 5 7 10 11 10 9 5 2 1 0 2
8 8 8 9 9 9 9 2 8 8 9 9 11 10 9 10 7 7 6 6 8 8 6 9 7 9 12 14 14 11 8 8 8 7 6 5 5 5 7 7 8 7 6 5 3 6 7 5 6 6 7 6 6 5 7 7 7 6 5 4 3 1 2
8 8 9 10 12 11 9 7 8 8 9 9 9 10 8 8 8 7 6 6 9 9 7 12 9 9 12 13 14 9 7 7 7 7 7 7 7 6 5 6 7 8 8 5 7 11 10 7 8 7 7 6 6 4 4 3 3 4 4 3 2 2 2
8 8 8 10 11 10 9 10 8 6 10 9 10 10 9 8 6 7 7 8 10 8 8 11 11 11 10 12 10 8 9 8 8 8 8 8 8 8 8 7 6 7 8 6 6 9 9 12 8 7 6 5 4 4 5 6 7 8 9 9 8 7 8
10 9 9 10 10 9 7 7 9 5 9 10 11 10 10 10 8 7 8 9 8 9 8 11 13 13 13 11 9 9 8 9 9 8 9 8 7 8 10 15 9 7 7 5 7 9 8 7 7 6 6 5 4 4 4 5 5 5 5 6 6 9 9
11 11 11 10 9 10 9 7 7 10 8 9 10 9 9 10 9 8 8 8 11 11 9 11 14 14 15 12 8 6 7 9 9 7 8 7 7 6 7 8 10 7 6 4 7 8 8 6 5 5 5 5 3 2 2 3 5 7 8 8 6 8 7
10 11 10 10 9 8 7 8 8 9 9 9 9 8 9 10 12 9 8 9 9 9 11 10 13 16 15 14 12 8 6 9 9 8 7 6 7 5 5 5 4 4 5 5 6 6 6 6 3 2 3 4 2 2 2 3 2 3 3 3 5 5 5
10 10 8 9 10 8 7 8 8 9 9 8 9 10 11 11 12 11 10 10 10 10 9 10 12 15 15 15 14 11 7 8 7 7 7 6 5 4 4 3 2 2 3 3 3 3 3 5 3 2 2 2 2 1 1 3 3 4 3 3 4 5 5
9 9 9 8 10 9 8 8 8 7 7 9 11 11 11 10 10 10 10 10 9 9 10 13 8 12 14 15 15 13 8 6 5 8 8 6 5 4 2 1 1 3 4 3 2 2 1 1 1 1 2 1 3 5 2 1 0 2 2 3 4 4 5
9 8 8 8 8 9 7 7 7 7 8 9 10 11 11 10 10 10 9 8 7 7 7 8 11 9 13 14 15 14 13 9 10 7 7 6 4 2 1 2 2 5 6 4 3 1 0 4 1 1 2 3 4 6 4 3 2 2 3 4 3 5 5
9 8 8 8 8 8 7 6 6 5 6 8 9 10 9 8 9 9 8 7 7 7 6 5 9 11 11 14 14 14 13 12 10 6 6 4 2 1 1 3 4 7 4 4 4 4 3 2 2 4 3 3 6 5 3 2 2 2 2 4 6 6 6
Wind_Direction
179 171 168 163 149 155 157 169 163 180 187 196 188 192 190 179 178 185 176 160 150 155 160 153 156 158 140 137 161 170 161 167 168 165 172 177 183 217 167 91 90 124 137 89 140 157 137 140 142 86 88 125 149 138 160 162 150 140 149 126 120 109 99
163 154 147 145 156 157 154 165 174 184 185 194 196 189 192 193 187 182 163 159 148 152 160 151 165 144 154 149 153 157 167 172 172 169 161 182 188 186 122 68 110 125 94 95 127 120 143 143 117 151 148 123 169 231 184 170 167 164 160 147 137 119 109
116 116 137 153 159 160 163 174 183 185 187 188 200 194 194 193 187 173 168 164 157 152 154 161 160 156 169 160 163 170 168 165 167 163 175 177 181 179 166 148 136 117 95 90 90 112 69 54 149 157 161 159 156 220 163 169 168 169 162 141 121 109 105
131 130 134 137 139 157 171 178 186 195 178 189 191 195 185 179 178 174 167 171 154 154 154 151 163 169 171 171 169 162 166 164 165 169 159 162 169 169 169 163 162 166 165 166 168 166 152 141 125 137 149 159 160 144 209 171 167 174 148 125 122 123 117
151 149 152 156 166 173 177 177 193 175 180 174 172 167 169 169 168 171 163 153 151 151 169 165 154 157 156 153 155 163 166 161 153 159 162 165 172 174 178 178 167 151 125 144 163 161 154 155 149 151 154 145 106 205 139 137 131 129 132 124 131 132 133
158 155 151 155 168 171 173 163 168 181 160 155 171 161 171 165 157 153 148 154 158 166 161 150 155 147 149 150 154 158 155 157 165 162 167 178 174 171 188 185 166 165 163 142 146 151 133 131 140 140 147 144 142 143 132 138 152 124 114 124 136 143 140
160 157 160 160 172 171 161 166 177 174 168 174 164 165 169 153 149 155 149 155 158 156 155 157 151 150 148 150 154 157 169 168 152 160 170 172 175 181 165 163 181 179 158 150 150 141 146 140 149 153 144 118 104 143 112 149 142 123 48 107 126 139 143
158 162 164 170 168 161 159 164 179 161 163 166 156 157 149 151 151 147 143 141 149 150 147 146 146 144 150 148 153 163 162 163 159 151 160 158 166 170 172 172 171 157 160 160 153 160 158 162 158 161 149 137 103 118 151 153 153 144 156 61 127 150 156
157 154 159 168 168 164 161 166 169 164 166 144 143 139 159 148 154 150 135 143 148 146 150 149 148 147 150 148 154 152 163 163 156 162 166 162 170 171 171 150 146 178 164 160 162 159 169 166 161 163 163 154 148 158 171 154 162 141 149 135 109 143 156
158 170 175 179 168 164 159 168 161 170 151 139 146 147 147 148 149 147 137 140 148 152 149 150 150 148 149 150 156 159 158 166 157 169 161 167 179 163 158 164 172 168 168 152 154 164 166 159 163 168 182 176 167 147 159 159 195 148 214 167 144 200 151
170 177 183 178 160 142 128 151 148 144 156 149 146 153 142 144 147 146 141 144 146 149 154 152 152 149 145 153 161 165 164 156 160 150 165 163 170 162 163 157 150 179 171 153 167 171 168 167 160 176 184 167 161 158 155 165 194 202 176 226 157 161 167
176 179 189 176 149 141 153 170 188 172 146 141 141 144 140 141 144 148 147 147 144 148 148 155 156 153 151 149 161 156 147 152 151 167 182 162 166 149 159 177 170 185 177 173 163 171 174 159 173 174 176 153 150 103 153 143 145 251 166 190 223 143 153
174 177 186 172 155 155 162 165 177 148 154 150 148 145 144 147 149 150 156 152 145 151 153 158 160 156 150 154 159 151 157 143 151 168 185 181 151 159 155 173 189 180 187 153 161 170 170 176 177 176 174 172 175 145 141 157 167 189 197 177 175 141 154
175 179 186 177 166 161 158 153 160 154 145 155 149 146 150 153 154 156 161 154 156 165 162 162 163 154 152 156 161 158 154 150 150 169 167 178 166 159 168 175 196 203 153 153 168 164 163 166 179 182 180 175 179 167 155 151 151 125 34 83 123 155 159
171 171 182 180 169 160 154 152 152 150 157 160 149 149 151 155 157 158 158 157 160 165 170 170 167 154 152 154 159 154 151 151 151 163 170 168 176 171 161 176 200 183 150 151 174 136 127 173 175 171 175 182 188 187 194 142 164 158 174 69 83 90 155
167 163 190 178 168 160 157 151 152 155 152 144 158 150 154 159 162 160 151 155 146 157 171 174 168 156 157 156 156 162 157 156 158 164 173 171 176 167 163 182 195 157 176 81 328 98 131 181 156 175 184 181 189 188 193 178 140 157 162 173 171 159 184
156 171 182 179 169 165 158 149 151 150 150 146 154 160 157 162 161 158 150 152 145 153 163 163 161 168 153 157 164 170 167 166 169 173 173 169 168 167 174 177 191 168 148 157 194 88 122 12 132 162 187 176 174 172 175 170 159 144 159 145 203 185 188
154 219 193 176 167 164 157 152 155 152 151 150 155 158 164 163 154 150 157 160 145 150 154 155 153 139 155 167 170 168 166 168 174 171 176 172 167 168 169 180 180 167 139 134 96 49 46 108 127 135 154 178 171 162 154 160 157 146 144 174 183 214 188
193 215 203 175 166 164 157 152 154 154 152 150 155 167 162 167 152 162 165 155 139 115 134 149 147 158 143 122 119 136 153 158 164 166 172 170 162 167 170 169 160 144 126 124 120 99 140 105 112 127 143 146 152 141 137 143 146 148 160 173 164 171 194
195 193 214 183 163 159 156 154 154 154 149 147 155 165 167 157 149 129 104 101 97 104 94 79 83 113 128 131 124 125 134 143 153 166 167 163 164 162 163 159 152 125 127 135 132 157 137 95 95 90 113 124 123 125 131 149 152 152 155 151 174 188 183
211 193 219 212 144 155 155 154 153 144 141 145 155 158 136 107 94 102 100 93 79 78 86 69 43 43 107 135 118 121 140 149 152 150 145 132 109 56 75 107 126 157 127 134 141 157 127 109 94 82 58 93 93 99 101 106 126 139 143 163 172 188 199
172 156 168 176 120 107 331 195 140 137 139 133 123 117 118 116 110 97 84 87 85 68 74 60 16 356 65 105 113 118 133 142 135 124 117 112 117 136 157 113 98 103 114 125 129 124 108 114 117 103 94 104 93 93 94 91 120 142 149 160 194 174 168
164 147 155 157 167 147 123 255 143 125 111 113 117 117 108 105 108 109 102 86 82 75 65 46 2 339 305 149 113 110 121 132 132 133 127 115 92 71 50 68 69 75 82 83 92 96 91 85 83 104 130 111 105 89 86 87 84 113 124 121 176 170 184
144 139 143 149 172 159 117 270 129 109 112 114 114 112 108 102 97 95 99 104 90 71 61 15 351 316 290 159 116 105 113 120 130 133 135 121 100 98 94 80 84 67 59 45 51 76 91 90 92 91 87 93 113 124 112 89 108 138 111 105 90 80 147
140 138 134 145 161 136 99 261 129 115 113 111 108 106 100 101 102 102 99 94 83 64 72 15 357 49 87 110 105 99 97 99 92 92 99 104 108 105 98 85 69 61 61 80 77 42 61 74 84 83 75 70 64 58 76 136 142 74 103 102 91 155 131
135 130 122 116 138 122 107 140 162 115 108 108 106 100 104 101 97 95 102 95 79 60 59 17 4 66 81 96 102 100 96 99 98 101 104 106 107 103 101 93 84 66 64 62 66 72 83 75 73 77 76 65 52 48 43 40 40 97 148 108 130 258 214
113 122 119 116 121 115 105 196 131 106 110 108 103 100 96 96 94 88 86 93 87 60 49 5 16 68 86 94 97 98 100 97 96 100 108 113 113 110 105 104 96 80 53 60 62 64 67 62 57 52 47 49 49 39 40 34 31 32 40 76 98 39 295
104 107 106 102 90 82 89 123 93 99 100 105 106 105 107 102 94 91 81 86 85 62 31 8 35 73 88 93 90 94 96 94 89 82 71 67 68 90 105 100 97 89 50 23 48 115 92 81 76 67 56 44 44 50 54 43 39 36 35 32 27 343 295
75 91 103 106 104 100 99 100 87 89 97 95 91 94 80 85 92 85 76 75 80 63 32 17 31 66 94 99 98 92 85 83 86 78 69 62 64 54 59 87 102 91 89 49 348 72 87 84 73 61 56 41 38 38 45 70 81 75 73 48 6 310 295
45 65 80 92 91 92 102 99 82 92 98 97 98 91 89 80 73 80 74 66 75 68 45 18 29 48 74 104 99 98 96 85 69 64 52 51 65 67 61 49 62 78 74 62 18 48 85 100 87 82 76 63 46 39 359 353 358 9 10 2 348 336 323
34 51 62 69 81 79 66 86 95 82 100 104 97 97 101 90 74 65 69 66 63 75 56 30 36 45 50 54 93 105 102 95 87 74 60 36 43 62 63 64 65 65 67 50 32 60 41 64 92 100 93 75 48 22 348 355 351 357 11 354 349 340 328
42 38 50 52 64 79 75 67 85 88 73 79 85 94 91 91 84 67 61 67 62 66 61 40 37 45 47 44 59 86 102 108 102 101 98 79 48 46 58 49 56 59 75 64 54 45 42 62 86 96 104 100 79 31 357 12 13 354 352 356 353 353 350
55 49 47 46 45 56 67 78 67 77 81 80 79 76 80 83 83 73 66 62 59 58 61 48 38 43 45 45 49 75 76 94 105 107 97 98 88 55 50 64 55 60 78 65 54 50 39 34 87 112 99 90 88 60 62 19 35 13 343 348 323 338 329
43 48 48 66 60 42 48 71 76 81 85 80 84 75 71 73 76 73 65 60 59 51 51 57 42 43 47 47 47 62 73 79 96 103 104 94 88 87 66 57 60 25 63 88 86 75 59 44 29 60 80 113 104 88 32 23 13 19 345 333 336 337 334
40 48 42 44 65 64 42 45 58 65 79 89 89 86 82 76 79 75 68 61 58 55 50 51 54 45 51 54 52 53 70 61 71 107 94 88 75 71 68 65 40 350 343 350 15 31 54 135 219 119 99 96 345 29 51 66 37 350 341 353 347 349 354
38 37 37 36 58 62 54 61 57 62 79 83 86 87 85 85 81 75 68 59 55 54 51 49 45 54 53 58 59 60 62 66 60 69 89 91 88 74 15 344 325 342 334 346 344 328 164 169 154 70 58 358 10 32 40 44 37 15 13 6 10 21 6
42 42 40 42 47 60 59 66 70 65 84 94 98 92 90 91 90 86 82 68 53 46 41 48 42 45 55 57 59 62 63 61 64 77 78 96 73 63 4 348 328 326 352 13 18 15 32 83 63 47 38 39 64 60 69 62 48 39 35 32 43 35 14